GFSSE_sfc_temp_258.txt.gz
Temp
72 76 82 83 83 83 83 83 82 81 81 82 82 82 83 83 83 83 83 84 83 84 84 84 84 84 84 84 84 84 84 84 84 83 83 83 82 82 83 83 82 83 82
75 78 82 82 83 83 83 83 83 83 81 81 81 83 83 83 83 83 84 84 84 84 84 84 84 84 84 84 84 84 83 83 83 83 83 83 83 82 83 83 82 83 82
76 78 80 82 83 83 83 83 83 83 83 82 82 82 83 83 83 83 84 84 84 84 84 84 84 84 84 84 84 84 83 83 83 82 82 82 83 83 82 82 82 81 81
77 76 77 82 83 83 83 83 83 83 84 83 83 83 83 83 83 84 84 84 84 84 84 84 84 84 84 83 83 83 83 82 82 80 79 80 83 82 82 82 82 81 81
75 76 77 82 83 83 83 83 83 83 82 82 82 83 83 83 83 84 84 84 84 84 84 84 84 84 84 84 83 83 83 82 81 79 77 77 79 82 81 82 81 81 81
75 77 81 83 83 83 83 83 83 83 83 83 84 83 83 83 83 84 84 84 84 84 84 84 84 84 84 83 83 83 82 81 78 77 76 79 78 82 82 82 81 81 80
74 76 78 82 83 83 83 83 83 83 83 84 84 84 84 84 84 84 84 84 83 83 83 84 84 84 84 83 83 82 82 80 77 76 76 77 79 81 81 81 81 81 80
74 76 78 82 83 83 83 83 83 83 83 84 84 84 83 84 84 83 83 83 83 83 83 83 84 84 84 84 83 82 82 81 78 76 76 77 79 80 81 80 80 80 80
75 75 75 77 80 83 83 83 83 83 84 83 84 83 83 83 83 83 83 83 83 83 83 83 83 83 83 83 83 83 82 79 76 76 78 77 79 80 80 80 79 79 79
74 75 74 75 76 76 77 82 83 83 83 83 83 83 83 83 84 83 82 83 83 83 83 83 83 83 83 83 83 83 82 80 76 76 76 77 80 80 80 80 79 79 79
73 73 73 74 74 75 76 79 81 83 83 83 83 84 82 77 78 80 82 83 83 83 83 83 83 83 83 83 83 83 80 76 76 76 76 78 80 80 80 80 79 79 79
71 72 72 73 73 74 80 76 76 78 77 77 77 76 75 75 76 79 81 83 83 83 83 83 83 83 82 81 80 82 79 77 77 76 76 79 80 80 80 79 79 79 79
73 73 72 73 73 74 75 74 74 74 74 75 75 74 74 75 75 76 76 76 76 80 78 79 79 80 79 80 80 80 78 78 77 77 78 79 80 80 80 80 79 79 79
71 73 73 73 73 73 74 73 73 73 73 73 74 74 73 73 74 74 74 75 75 76 76 76 77 77 78 78 79 80 79 78 77 78 77 80 80 80 80 80 79 79 79
70 72 73 73 72 72 73 72 72 72 72 73 73 73 73 73 73 74 74 74 74 75 75 75 76 77 77 80 80 79 79 79 79 78 77 80 80 80 80 80 80 80 79
72 72 74 73 72 72 72 71 71 72 73 73 73 74 74 74 73 73 73 74 74 75 75 76 76 77 78 80 80 80 80 79 79 78 79 78 81 80 80 81 81 80 80
73 73 73 73 73 72 72 72 72 72 74 73 73 74 74 74 74 74 73 73 75 75 76 76 78 78 78 80 80 80 80 79 79 78 78 78 79 80 80 80 80 80 80
74 73 74 78 74 72 71 72 72 73 73 74 74 74 75 75 75 74 74 74 76 76 76 77 77 77 78 78 78 79 80 79 79 78 79 79 78 80 80 80 80 80 80
75 73 73 75 73 73 72 71 72 73 73 74 74 74 75 76 76 75 75 76 76 76 76 77 78 77 77 78 80 80 78 78 78 83 79 78 78 79 79 78 79 79 80
76 75 75 74 73 72 72 71 72 72 73 74 74 75 75 76 77 76 76 76 76 76 77 77 77 77 77 77 81 81 79 79 78 78 79 81 80 79 79 78 78 80 80
76 74 73 72 72 73 71 71 71 71 73 74 74 76 75 76 78 76 77 76 76 76 77 78 77 77 78 77 75 77 78 79 79 79 79 79 79 80 79 78 78 78 80
74 74 73 74 72 73 74 73 73 73 74 75 75 75 76 76 77 77 76 76 76 76 77 77 77 76 76 76 75 73 73 77 78 79 78 80 80 79 80 80 78 78 78
74 74 74 74 73 74 74 73 73 74 73 73 74 74 75 76 77 77 77 77 76 76 76 77 77 76 75 76 76 75 72 72 70 76 78 78 78 78 79 79 80 79 78
76 76 75 75 74 74 74 74 73 72 71 73 74 74 75 76 77 78 78 78 77 77 77 77 78 77 75 76 75 76 74 73 72 71 76 76 76 79 79 79 79 79 79
78 77 76 74 74 75 74 75 74 72 74 74 74 74 74 75 77 78 78 78 78 77 77 77 76 76 76 76 75 74 73 72 71 71 71 73 76 77 78 78 79 79 79
79 78 77 73 73 73 74 75 74 73 73 73 73 73 74 74 76 77 78 78 78 77 77 77 76 76 75 76 75 74 74 74 73 72 70 69 70 74 77 78 79 80 80

GFSSE_sfc_temp_261.txt.gz
Temp
80 84 82 83 83 83 82 81 82 82 82 82 83 83 83 84 82 83 84 83 84 84 84 84 84 84 84 84 84 84 84 84 84 84 83 83 83 83 83 83 85 89 82
83 85 82 83 84 83 82 81 82 82 81 81 83 83 84 83 83 83 84 84 84 84 84 84 84 84 84 84 84 84 83 83 83 83 84 84 83 83 83 83 83 85 82
85 86 85 82 83 83 83 82 81 81 82 82 83 83 84 83 84 84 84 84 84 84 85 84 84 84 83 82 84 84 83 83 82 82 84 90 89 83 83 82 82 82 81
85 86 86 82 83 83 83 82 82 82 82 83 84 84 83 83 84 84 84 84 84 84 84 84 84 83 83 83 83 82 82 82 81 82 88 89 89 82 82 82 82 82 81
85 86 85 83 83 83 83 83 83 83 82 83 82 84 84 84 84 84 84 84 84 84 84 84 84 84 84 83 83 83 82 81 81 86 86 86 89 83 82 82 82 82 82
85 86 84 83 83 83 83 83 83 83 83 82 84 84 84 84 83 84 84 84 83 84 84 83 84 84 84 84 83 82 81 81 83 87 86 86 87 82 82 81 81 81 81
85 86 86 83 83 83 83 83 83 83 83 84 84 83 83 83 84 84 84 84 84 84 84 84 84 84 84 84 83 82 81 81 87 86 85 86 87 81 81 81 81 81 81
85 86 86 83 83 83 83 83 83 83 84 84 83 84 84 84 84 84 84 84 84 84 84 84 84 84 84 84 83 82 81 81 87 85 86 87 80 81 81 81 81 81 80
85 85 85 86 85 83 83 83 83 83 83 84 83 83 83 84 84 83 83 83 84 84 84 84 84 84 84 84 83 82 81 80 89 87 89 89 79 80 80 80 80 79 80
85 86 85 85 86 86 86 83 83 82 84 84 84 84 83 84 84 83 82 83 83 84 84 84 84 84 84 84 83 82 81 81 90 88 88 87 80 81 81 80 80 79 79
82 84 85 85 84 84 85 85 83 82 83 84 85 84 84 88 88 87 83 83 84 84 84 84 84 84 84 83 83 83 82 90 89 89 90 79 80 81 80 80 80 79 79
81 83 86 86 86 86 87 85 86 85 87 88 86 85 87 86 86 88 86 83 83 83 83 83 83 84 87 93 94 87 93 91 91 90 89 79 80 81 80 80 80 79 79
82 84 84 85 85 87 86 85 87 87 87 86 83 84 84 86 86 89 89 90 89 85 93 91 91 92 90 91 92 93 92 92 94 93 86 79 80 81 80 80 80 79 79
81 82 84 83 83 84 85 85 85 86 85 86 86 82 84 86 85 86 88 87 87 89 87 88 91 89 90 90 90 91 93 94 94 94 89 80 80 80 80 80 80 79 79
80 82 83 83 82 82 82 82 82 84 85 86 85 83 86 86 85 86 86 88 87 89 89 88 88 88 88 91 92 91 94 93 93 94 93 80 81 80 81 81 80 80 80
81 82 84 82 82 82 82 81 82 83 84 84 85 85 83 86 84 86 86 87 88 88 89 88 87 88 90 93 93 93 93 93 91 90 94 93 81 81 80 81 81 81 80
82 84 83 82 83 81 81 82 83 84 86 85 85 83 83 84 84 84 87 87 89 87 86 88 88 91 92 94 91 93 94 92 93 90 91 92 91 80 81 81 81 81 81
83 81 82 85 83 82 81 82 84 84 85 85 86 86 84 84 83 84 87 88 88 88 89 89 90 91 91 92 91 93 94 92 91 90 91 92 92 93 86 80 80 80 81
83 81 81 82 83 82 81 82 83 83 84 86 86 86 84 85 85 85 89 89 86 89 89 89 90 88 89 91 94 94 93 93 91 95 90 90 91 91 92 86 80 80 81
84 83 82 82 82 81 82 81 83 83 84 86 86 86 85 86 85 85 88 87 87 88 89 89 86 89 88 89 93 93 93 94 93 92 92 93 94 91 92 90 90 90 81
85 82 81 80 80 81 81 80 81 81 83 84 86 85 84 85 86 85 88 88 88 87 87 86 87 86 90 90 89 93 94 94 94 95 95 94 93 93 92 90 89 92 92
84 82 81 81 80 80 82 82 83 83 85 86 87 85 86 85 86 86 86 88 87 89 86 86 85 88 90 88 87 87 87 92 95 95 94 94 93 94 94 92 90 89 89
84 82 82 81 81 81 82 83 82 83 84 83 84 86 86 85 86 86 87 87 86 86 89 87 87 85 87 89 85 86 85 84 86 93 91 93 89 93 93 93 92 90 89
85 86 84 82 81 82 81 82 80 83 82 85 85 87 86 86 86 87 86 86 86 88 86 88 89 86 85 87 88 88 84 83 83 84 92 91 91 92 91 94 93 91 89
87 86 85 82 81 82 81 82 82 82 86 87 87 84 84 85 85 87 87 86 86 88 87 86 85 84 87 87 87 87 84 86 82 84 83 87 91 93 93 93 93 94 92
87 86 85 82 80 81 81 81 81 82 83 84 84 85 86 88 88 85 87 86 86 87 86 87 86 85 85 86 87 86 86 85 85 83 82 83 83 88 91 93 94 94 94

GFSSE_sfc_temp_264.txt.gz
Temp
86 89 83 83 82 83 83 82 82 83 83 83 83 83 83 83 83 82 83 84 84 84 85 85 85 84 84 85 84 84 84 84 84 83 83 83 83 83 83 83 85 91 82
92 91 83 82 82 82 83 82 83 82 82 83 83 83 83 83 84 83 84 84 84 85 85 85 85 84 84 84 84 84 84 83 83 85 83 84 83 83 83 82 85 87 83
92 91 89 82 83 83 82 83 82 82 82 83 83 84 82 84 83 85 84 85 85 85 85 85 84 84 84 84 83 83 83 82 83 84 86 95 91 83 83 83 82 82 82
93 93 91 82 83 82 82 81 81 82 82 83 83 83 83 84 84 84 83 84 84 84 83 83 84 84 84 84 83 83 82 82 83 86 95 90 93 83 83 82 82 82 82
93 94 89 83 83 82 82 81 81 82 84 84 84 84 84 84 84 84 84 84 84 84 84 84 84 84 84 84 83 82 82 82 83 91 91 92 94 85 83 83 83 82 82
93 93 85 83 83 83 83 83 83 83 83 83 84 84 84 84 84 85 84 84 84 83 84 85 85 85 84 83 83 82 81 83 87 93 93 90 90 82 82 82 82 82 81
93 93 90 83 83 83 82 83 83 83 83 84 84 84 83 84 84 84 84 84 84 84 84 84 85 85 84 83 82 82 82 83 94 92 92 92 88 81 82 82 82 82 81
95 94 91 84 83 83 82 83 83 84 84 83 83 83 84 84 84 84 84 84 84 84 84 84 85 85 84 83 83 82 82 83 94 93 94 91 81 81 81 81 81 81 81
92 93 92 92 87 84 83 83 83 84 83 83 83 84 84 84 84 84 84 84 84 84 84 85 84 84 84 84 83 82 82 83 97 95 96 94 80 81 81 80 80 80 80
94 94 92 91 93 93 92 83 83 83 83 84 83 84 84 84 84 84 83 83 84 84 85 85 85 84 84 84 83 83 82 85 98 96 94 89 81 81 81 81 80 80 80
91 93 94 93 92 91 91 88 84 84 84 85 85 84 86 95 94 92 84 84 84 85 85 85 85 84 85 84 84 83 84 96 98 98 95 80 81 81 81 80 80 80 80
90 93 95 95 94 93 95 90 91 91 96 94 88 90 95 94 92 94 88 83 84 84 84 85 85 85 87 102 99 88 100 98 98 98 92 81 81 81 81 80 80 80 80
92 93 94 95 94 96 94 93 94 94 95 92 89 90 91 93 93 97 95 96 96 87 100 97 98 99 97 99 100 100 98 101 101 99 87 81 81 81 81 81 80 80 80
91 92 94 94 92 93 94 93 94 95 94 95 93 89 90 93 91 94 96 94 95 98 94 95 98 96 97 98 98 98 101 101 100 101 89 81 81 81 81 81 81 80 80
90 91 92 91 89 90 89 91 92 94 93 94 92 89 94 94 91 94 93 97 96 98 98 96 96 96 96 100 100 99 101 100 100 102 100 83 82 81 81 81 81 81 81
90 90 93 90 89 90 88 88 89 92 92 93 93 92 89 94 91 93 93 96 97 97 97 96 93 95 97 101 100 99 99 102 100 99 103 97 82 81 81 82 82 82 81
91 92 91 90 90 88 87 88 89 92 94 92 93 89 89 90 89 91 94 95 98 96 94 97 95 99 100 103 99 101 103 100 103 100 100 101 98 80 82 81 81 81 81
92 90 90 92 91 89 88 89 91 92 93 93 94 93 90 89 89 89 94 96 96 98 99 98 97 97 98 100 100 101 102 103 100 99 100 100 102 102 86 82 81 81 81
91 89 88 89 90 89 87 89 89 89 91 94 94 94 90 91 91 91 95 96 94 98 99 97 97 95 96 97 100 104 102 103 102 105 99 98 98 99 101 85 81 80 81
92 90 88 89 88 87 89 87 90 91 92 94 94 94 92 92 91 91 95 95 94 98 98 95 91 95 96 97 100 102 103 105 105 104 103 103 105 100 101 98 98 98 80
92 89 88 87 86 87 87 87 88 88 90 92 94 92 90 92 92 90 95 94 94 94 92 92 94 93 96 97 97 98 101 103 104 106 107 106 103 104 100 99 97 100 99
91 89 87 87 86 86 89 88 90 90 92 93 93 91 91 91 92 92 92 94 94 96 91 92 91 94 98 96 92 95 93 98 103 105 104 103 101 103 103 101 98 96 97
91 89 88 86 87 86 88 89 88 89 90 90 91 91 91 91 91 90 91 93 92 92 95 92 92 90 93 96 91 91 89 89 93 100 99 101 96 99 101 101 100 98 96
93 94 90 87 87 87 87 87 85 87 87 91 91 93 93 91 91 92 91 92 90 95 93 93 95 92 89 92 95 97 90 89 87 88 99 99 99 99 98 101 101 99 96
95 95 92 88 87 87 86 87 87 86 92 93 93 90 89 89 91 93 92 91 90 92 92 91 91 89 94 92 94 94 92 93 90 88 86 92 97 99 100 100 101 101 100
97 96 94 89 85 86 86 85 85 86 88 91 90 91 92 93 92 90 92 90 90 91 91 92 91 89 90 90 93 92 92 90 90 89 88 89 90 95 99 101 101 101 101

GFSSE_sfc_temp_270.txt.gz
Temp
73 75 77 79 82 83 82 83 82 82 83 82 83 83 83 83 83 83 84 83 83 83 84 84 84 84 84 84 84 84 84 84 84 84 84 83 83 83 84 84 85 84 83
76 77 78 82 83 83 83 82 82 83 82 83 83 84 84 84 84 84 83 84 84 84 84 84 84 84 84 84 84 84 84 83 83 84 83 84 83 83 83 84 84 83 83
84 83 84 83 83 83 83 83 83 83 83 83 83 84 84 83 83 84 84 84 84 84 85 85 85 84 84 83 83 83 83 83 84 84 85 85 84 83 83 83 83 83 83
88 87 85 82 83 83 83 83 83 83 83 84 84 84 83 84 84 84 84 84 84 85 85 85 85 84 84 83 83 83 83 83 85 85 85 87 86 83 83 83 83 82 82
88 87 84 83 83 82 83 83 83 83 83 84 84 84 84 84 84 85 85 84 84 85 85 85 85 84 83 83 83 83 83 83 85 88 84 83 82 83 83 83 82 82 83
88 87 84 83 82 82 83 82 83 83 83 84 83 84 84 84 84 84 84 84 85 85 85 85 85 84 83 83 83 83 83 84 87 89 84 83 80 82 83 83 83 82 82
88 86 85 82 83 83 83 83 83 83 84 84 84 84 84 84 84 84 84 85 84 84 84 85 85 84 84 84 83 83 83 84 90 85 83 81 80 82 82 82 82 82 81
89 87 86 83 83 83 83 83 84 84 84 84 84 84 84 84 84 84 84 84 85 84 85 85 84 84 84 84 84 84 84 85 91 84 83 80 80 81 81 81 81 81 81
92 88 86 85 84 84 84 84 83 84 84 84 84 84 84 84 84 84 84 84 85 85 85 85 85 84 84 84 84 84 84 85 88 85 86 79 80 81 81 81 81 81 80
92 90 88 85 86 84 85 84 84 84 84 84 84 84 84 85 85 85 83 84 85 85 85 85 85 85 84 84 84 85 85 85 89 84 81 79 81 82 81 81 81 80 80
92 88 90 86 85 85 85 85 84 84 84 85 85 84 84 83 88 87 84 85 85 85 86 86 86 85 84 84 84 84 84 91 89 85 81 80 81 81 81 81 81 81 81
92 92 89 91 90 89 91 84 84 85 85 84 85 83 83 83 88 91 87 85 85 85 86 85 85 85 85 89 86 84 87 92 89 85 80 80 81 81 81 81 81 80 80
93 92 91 84 90 92 88 87 88 86 87 88 88 83 85 88 86 88 86 87 85 85 88 88 93 90 89 91 92 93 93 94 90 87 81 80 81 81 81 81 81 81 80
94 91 92 90 85 91 90 88 91 83 87 88 88 90 87 87 85 85 85 89 88 91 90 88 91 91 93 94 95 94 96 94 90 87 81 81 81 82 82 81 81 81 81
93 92 89 87 82 85 89 88 87 85 88 86 87 89 87 84 87 88 88 89 89 87 91 87 89 90 90 94 94 94 96 95 95 89 82 82 81 81 82 82 82 82 81
94 92 93 90 87 87 86 85 86 87 85 85 88 88 89 87 87 87 87 88 90 86 89 90 88 87 88 94 92 94 94 94 94 93 87 82 81 81 82 82 82 82 82
94 94 91 90 90 87 82 88 88 84 90 88 87 87 90 88 88 87 88 88 89 87 89 87 88 88 90 94 92 93 94 95 94 94 92 87 82 81 81 82 82 82 82
94 91 90 94 90 87 87 87 87 84 86 90 89 87 89 88 87 88 87 88 89 89 88 90 89 88 89 89 90 91 93 93 93 93 92 92 87 88 81 81 81 81 81
93 90 89 87 89 87 86 87 88 85 88 90 90 89 87 89 90 87 88 88 89 87 89 90 86 88 88 88 91 91 91 91 92 98 94 92 93 90 87 82 81 81 82
93 90 89 90 86 85 85 86 87 88 88 90 90 90 87 88 88 87 88 88 88 87 88 87 87 87 87 87 96 93 91 93 92 91 93 96 93 94 93 85 82 82 81
93 88 87 86 84 85 84 84 85 85 87 88 90 85 87 88 89 87 87 88 88 85 86 89 86 85 85 88 84 85 88 92 93 92 92 94 92 94 92 89 87 88 85
91 88 86 85 84 85 85 84 85 86 88 90 90 88 88 89 87 87 85 85 86 87 86 87 87 84 85 88 83 81 78 84 86 93 90 93 91 92 92 94 90 88 88
90 88 86 85 84 84 85 86 84 86 86 84 87 87 88 87 88 86 86 85 86 88 85 86 86 84 82 83 88 82 77 76 80 86 89 89 88 88 89 90 90 90 88
92 91 87 86 84 84 84 84 81 83 82 85 86 88 87 87 87 88 87 86 86 87 85 84 88 86 85 81 84 88 85 82 77 76 83 86 87 89 87 88 89 88 88
95 92 89 85 85 85 84 83 85 83 85 87 86 84 85 84 87 88 87 87 85 85 85 85 84 81 85 83 83 82 83 83 82 78 76 80 84 86 88 88 89 87 89
97 96 91 84 83 84 84 84 82 82 83 86 85 87 86 86 86 85 87 85 85 86 85 85 85 81 83 83 83 82 81 80 79 79 78 79 79 82 86 87 88 86 86

GFSSE_sfc_temp_273.txt.gz
Temp
72 75 79 82 83 83 83 83 83 83 82 83 83 83 83 83 84 83 83 83 83 84 84 84 84 84 84 84 84 84 84 84 84 83 83 83 83 83 83 84 83 83 83
76 78 80 82 83 83 83 83 83 83 83 83 83 84 84 83 84 84 84 84 84 84 84 84 84 84 84 84 84 83 84 83 84 84 84 84 83 83 83 83 83 82 82
77 79 82 82 83 83 83 83 83 83 83 83 83 83 83 83 84 84 84 84 84 85 85 84 84 84 83 83 83 83 83 83 84 84 84 81 82 83 83 83 83 82 82
80 80 80 82 83 83 83 83 83 84 83 84 83 83 83 84 84 84 84 84 84 85 85 85 84 84 83 83 83 83 83 83 83 85 82 81 83 83 83 83 82 82 82
81 80 81 83 83 83 83 83 83 83 83 84 84 83 84 84 84 84 84 84 84 85 84 84 84 84 83 83 83 83 83 84 85 84 80 76 78 83 83 82 82 82 82
81 81 82 82 83 83 83 83 83 83 83 83 84 84 84 84 84 84 84 84 84 84 84 84 84 84 84 83 83 83 83 85 85 81 79 79 75 82 83 83 82 82 82
79 80 81 82 83 83 83 83 83 83 83 83 84 84 84 84 84 84 84 84 84 84 84 84 84 84 84 83 83 83 83 86 82 79 77 76 76 82 82 82 82 81 81
80 79 81 82 83 83 83 83 83 84 84 84 84 84 84 84 84 84 84 84 84 84 84 84 84 84 84 84 84 84 84 86 83 78 77 75 79 81 82 81 81 81 81
82 80 79 80 82 84 84 84 84 84 84 84 84 84 84 84 84 84 84 84 84 84 84 84 84 84 84 84 84 84 84 84 76 76 79 74 80 81 81 81 80 80 80
81 81 79 78 78 78 82 83 83 84 84 84 84 84 84 84 84 84 83 83 84 84 85 85 84 84 84 83 84 84 85 84 77 76 74 74 80 82 81 81 81 80 80
82 81 80 79 77 77 80 83 83 84 84 84 84 85 83 77 80 82 83 84 85 85 85 85 84 84 84 84 84 84 84 79 79 76 73 79 81 82 81 81 81 81 80
79 80 80 79 77 79 85 79 78 80 79 78 79 79 77 77 78 84 83 84 85 85 85 85 85 84 84 81 81 83 79 81 79 76 74 80 80 81 81 81 80 81 81
82 82 77 80 82 81 81 78 77 77 77 78 77 77 80 80 77 78 77 79 78 82 81 84 84 83 83 81 82 79 82 81 79 78 79 80 80 81 81 81 80 80 80
85 83 84 85 83 83 80 79 80 79 78 78 80 81 78 78 78 78 77 78 79 81 83 82 82 83 83 84 86 85 86 84 78 78 77 81 80 81 82 81 81 81 81
84 85 83 83 81 83 80 79 80 77 79 79 79 81 80 79 79 81 79 80 82 82 81 83 83 83 84 86 87 87 86 83 81 80 75 82 81 81 82 82 81 81 81
85 85 84 81 82 81 79 83 83 82 82 79 80 81 82 79 79 79 80 80 84 82 82 81 82 82 82 84 87 88 86 86 84 81 79 79 81 81 81 82 82 82 81
85 84 83 81 80 80 79 80 80 81 82 79 79 81 82 80 80 78 79 78 81 81 83 82 81 82 82 86 84 82 83 87 86 84 81 78 80 81 81 81 81 81 81
86 83 84 88 81 79 79 79 81 82 81 81 79 80 82 82 80 79 78 79 81 81 80 79 80 81 81 82 81 83 85 86 87 87 83 81 80 82 81 81 81 81 81
85 84 83 83 81 79 79 79 79 80 83 83 79 79 80 82 82 79 79 80 82 81 79 81 81 80 79 81 84 84 83 84 85 91 87 84 82 81 80 81 81 81 81
84 84 80 83 80 78 78 77 78 81 82 83 81 81 80 80 81 79 80 80 80 80 79 80 83 80 79 79 87 86 83 83 83 84 85 89 86 85 83 81 79 80 81
84 83 80 80 78 79 77 75 75 76 77 78 79 83 80 80 81 79 80 79 79 79 80 81 79 79 79 80 78 79 80 82 84 83 83 84 86 87 83 80 77 79 81
83 81 79 77 78 78 80 76 76 77 77 79 78 82 82 81 81 80 79 78 78 77 78 80 79 77 78 79 77 73 73 78 81 83 82 85 85 85 86 86 83 83 82
81 80 79 77 80 77 78 77 76 76 77 77 78 80 82 81 81 80 79 79 79 78 78 79 78 77 75 78 79 75 71 69 72 79 81 81 81 80 81 83 86 85 83
82 83 80 79 79 78 78 78 75 74 76 76 78 83 81 81 81 81 80 79 79 78 77 79 81 78 77 75 77 81 77 76 72 71 76 80 80 84 82 82 83 84 84
85 83 82 80 79 81 78 76 77 74 75 77 77 80 80 78 80 82 80 79 79 78 78 78 79 77 77 76 75 75 75 75 74 72 70 74 77 79 80 80 81 81 83
84 84 82 80 79 80 80 77 76 76 76 76 76 75 81 81 81 80 80 79 78 78 77 77 79 77 78 77 75 74 74 73 72 72 70 72 73 78 80 80 79 81 80